SCP
0 0 0 0 0 0 0 0 0 0 1 1 1 1 1 1 1 1 1 1 1 1 1 1 1 1 1 1 1 1 1 1 0 0 0 0 0 0 0 0 0 0 0 0
0 0 0 0 0 0 0 0 0 0 0 0 1 1 1 1 1 1 1 1 1 1 1 1 1 1 1 1 1 1 1 0 0 0 0 0 0 0 0 0 0 0 0 0
0 0 0 0 0 0 0 0 0 0 0 0 1 1 1 1 1 1 1 1 1 1 1 1 1 1 1 1 1 1 0 0 0 0 0 0 0 0 0 0 0 0 0 0
0 0 0 0 0 0 0 0 0 0 0 1 1 1 1 1 1 1 1 1 1 1 1 1 1 1 1 1 1 1 0 0 0 0 0 0 0 0 0 0 0 0 0 0
0 0 0 0 0 0 0 0 0 1 1 1 1 1 1 1 1 1 1 1 1 1 1 1 1 1 1 1 1 1 1 0 0 0 0 0 0 0 0 0 0 0 0 0
0 0 0 0 0 0 0 0 1 1 1 1 1 1 1 1 1 1 1 1 1 1 1 1 1 1 1 1 1 1 1 1 0 0 0 0 0 0 0 0 0 0 0 0
0 0 0 0 0 0 0 0 0 1 1 1 1 1 1 1 1 1 1 1 1 1 1 1 1 1 1 1 1 1 1 1 1 1 0 0 0 0 0 0 0 0 0 0
0 0 0 0 0 0 0 0 0 0 1 1 1 1 1 1 1 1 1 1 1 1 1 1 1 1 1 1 1 1 1 1 1 1 1 0 0 0 0 0 0 0 0 0
0 0 0 0 0 0 0 0 0 0 1 1 1 1 1 1 1 1 1 0 0 0 1 1 1 1 1 1 1 1 1 1 1 1 1 1 0 0 0 0 0 0 0 0
0 0 0 0 0 0 0 0 0 0 1 1 1 1 1 1 1 1 1 0 0 0 0 0 1 1 1 1 1 1 1 1 1 1 1 1 1 0 0 0 0 0 0 0
0 0 0 0 0 0 0 0 0 1 1 1 1 1 1 1 1 1 1 0 0 0 0 0 1 1 1 1 1 1 1 1 1 1 1 1 1 0 0 0 0 0 0 0
0 0 0 0 0 0 0 1 1 1 1 1 1 1 1 1 1 1 1 0 0 0 0 0 0 0 0 1 1 1 1 1 1 1 1 1 0 0 0 0 0 0 0 0
0 0 0 0 0 1 1 1 1 1 1 1 1 1 1 1 1 1 1 1 1 1 1 1 1 1 1 1 1 1 1 1 1 1 1 1 0 0 0 0 0 0 0 0
0 0 0 0 1 1 1 1 1 1 1 1 1 1 2 2 1 1 1 1 1 1 1 1 1 1 1 1 1 1 1 1 1 1 1 0 0 0 0 0 0 0 0 0
0 0 0 1 1 1 1 1 1 1 1 1 1 1 1 1 1 1 1 1 1 1 1 1 1 1 1 0 0 0 0 0 0 0 0 0 0 0 0 0 0 0 0 0
1 1 1 1 1 1 1 1 1 1 1 1 1 1 1 1 1 1 1 1 0 0 0 0 0 0 0 0 0 0 0 0 0 0 0 0 0 0 0 0 1 0 0 0
1 1 1 1 1 1 1 1 1 1 1 1 1 1 1 1 0 0 0 0 0 0 0 0 0 0 0 0 0 0 0 0 0 0 0 0 0 0 0 1 1 0 0 0
0 0 1 1 1 1 1 1 1 1 1 1 1 1 0 0 0 0 0 0 0 0 0 0 0 0 0 0 0 0 0 0 0 0 0 0 0 0 0 1 1 0 0 0
0 0 0 0 1 1 1 1 1 1 1 1 1 0 0 0 0 0 0 0 0 0 0 0 0 0 0 0 0 0 0 0 0 0 0 0 0 0 0 1 1 0 0 0
0 0 0 1 1 1 1 1 1 1 1 1 1 0 0 0 0 0 0 0 0 0 0 0 0 0 0 0 0 0 0 0 0 0 0 0 0 0 0 1 0 0 0 0
1 1 1 1 1 1 1 1 1 1 1 0 0 0 0 0 0 0 0 0 0 0 0 0 0 0 0 0 0 0 0 0 0 0 0 0 0 1 1 1 0 0 0 0
1 1 1 1 1 1 1 1 1 0 0 0 0 0 0 0 0 0 0 0 0 0 0 0 0 0 0 0 0 0 0 0 0 0 0 0 1 1 1 0 0 0 0 0
1 1 1 1 1 1 1 1 0 0 0 0 0 0 0 0 0 0 0 0 0 0 0 0 0 0 0 0 0 0 0 0 0 0 0 0 0 1 0 0 0 0 0 0
0 1 1 1 1 1 0 0 0 0 0 0 0 0 0 0 0 0 0 0 0 0 0 0 0 0 0 0 0 0 0 0 0 0 0 0 0 0 0 0 0 0 0 0
0 0 0 0 0 0 0 0 0 0 0 0 0 0 0 0 0 0 0 0 0 0 0 0 0 0 0 0 0 0 0 0 0 0 0 0 0 0 0 0 0 0 0 0
0 0 0 0 0 0 0 0 0 0 0 0 0 0 0 0 0 0 0 0 0 0 0 0 0 0 0 0 0 0 0 0 0 0 0 0 0 0 0 0 0 0 0 0
0 0 0 0 0 0 0 0 0 0 0 0 0 0 0 0 0 0 0 0 0 0 0 0 0 0 0 0 0 0 0 0 0 0 0 0 0 0 0 0 0 0 0 0
Wind_Speed
3 3 2 1 2 1 3 7 7 7 7 7 8 8 9 8 7 8 8 8 8 8 7 6 7 7 6 6 5 5 5 4 3 3 2 2 2 2 2 2 2 2 2 2
2 2 2 1 2 1 2 4 6 6 4 5 3 5 7 8 8 8 7 7 7 8 8 7 8 8 7 6 6 5 5 4 3 3 3 2 2 2 2 2 2 2 2 2
1 3 4 3 3 2 3 4 7 5 5 4 5 5 7 8 8 7 6 6 7 8 8 8 8 9 8 7 6 5 4 4 3 4 3 2 3 2 2 2 2 2 2 2
1 3 2 7 2 4 6 3 2 4 4 7 7 6 5 5 7 6 6 6 6 6 6 6 6 7 7 7 6 5 4 4 4 4 3 2 2 2 2 2 2 2 2 2
3 2 3 4 3 1 6 3 2 4 4 5 6 5 3 1 4 6 5 6 5 5 6 6 6 7 7 7 6 5 5 4 4 4 4 3 2 2 2 2 2 2 2 3
4 3 4 5 4 0 7 2 3 3 4 4 5 4 4 3 3 5 4 4 4 3 4 5 5 6 7 6 6 6 6 5 4 4 4 4 3 2 1 2 2 2 2 2
4 3 4 5 5 3 4 5 2 3 4 4 4 5 5 4 4 4 5 5 5 4 4 4 5 7 6 5 6 6 6 5 5 5 5 4 3 2 2 2 2 2 2 2
3 3 5 5 3 2 5 3 1 3 3 3 3 3 3 4 4 4 4 4 4 4 3 3 5 7 6 5 5 5 5 5 5 4 4 4 4 2 2 3 2 2 2 1
5 5 5 2 2 1 2 1 1 2 3 5 5 4 4 3 4 3 4 3 3 4 4 2 3 5 6 4 4 4 5 5 4 4 3 3 4 3 2 2 2 2 2 2
2 1 2 3 3 4 3 1 2 1 3 4 4 4 5 5 5 4 4 3 3 4 4 3 2 3 4 4 4 4 4 4 4 4 3 3 2 3 3 3 3 3 3 3
0 2 3 4 2 2 3 3 3 2 1 4 6 5 5 5 5 4 4 3 3 4 4 4 4 3 3 3 4 4 5 4 4 4 4 3 2 1 2 3 4 5 4 4
4 4 2 3 3 1 2 2 2 2 1 1 4 5 5 5 5 4 3 3 3 3 4 4 4 3 3 3 4 5 4 5 4 4 4 3 3 1 2 1 2 4 5 5
4 3 2 3 3 2 1 1 2 1 1 2 2 4 5 5 4 3 3 4 4 4 4 3 3 3 3 3 4 4 4 4 4 4 4 4 4 4 2 1 1 0 2 4
1 1 1 2 2 2 1 1 1 0 1 2 2 3 4 4 4 3 3 4 4 4 3 2 2 2 3 3 3 3 3 4 4 4 4 5 5 4 4 4 2 2 1 3
1 1 2 2 1 1 1 2 2 1 2 2 2 3 3 3 3 3 3 3 3 3 3 3 2 2 2 2 3 3 3 3 3 3 4 4 4 4 4 4 4 3 1 1
2 2 2 1 1 1 1 1 1 1 2 3 3 2 3 3 3 3 3 4 4 4 3 3 3 3 2 3 3 2 2 4 4 3 3 4 4 4 4 4 4 4 4 4
1 2 3 3 2 2 1 1 2 3 2 3 3 3 3 3 2 2 2 3 3 3 3 3 3 3 3 3 3 3 2 3 4 3 3 4 4 5 5 5 4 4 4 5
4 5 5 4 4 2 1 1 2 3 3 3 3 4 4 4 4 3 2 2 2 1 1 2 2 2 2 2 3 2 2 2 2 3 3 3 4 4 4 4 5 5 3 4
3 3 4 5 4 2 2 1 2 3 3 3 4 4 4 4 3 3 3 3 3 3 3 2 3 3 3 3 3 2 2 2 2 2 2 3 3 3 4 4 4 4 4 4
3 3 3 4 2 1 1 1 2 2 3 4 4 4 3 3 3 3 3 2 3 3 3 3 2 2 3 3 3 2 2 3 3 2 2 2 3 3 3 4 4 4 5 5
1 2 1 1 1 0 1 2 2 2 2 3 4 4 4 3 3 3 3 2 3 2 2 3 2 2 2 2 2 2 2 2 2 2 2 3 3 3 3 3 4 4 4 4
1 1 1 0 0 0 1 2 2 2 2 2 3 3 4 3 3 2 2 3 3 2 2 2 2 2 2 2 1 1 2 2 2 2 2 3 3 3 3 4 3 4 4 4
1 1 1 1 1 1 2 2 2 2 2 3 3 3 3 3 3 3 2 2 2 2 2 2 3 3 2 2 1 1 2 2 2 2 2 3 3 3 3 4 3 4 4 4
2 2 1 1 2 3 3 1 2 2 2 1 2 2 3 2 1 1 1 2 2 2 1 2 3 3 3 1 1 1 1 1 2 2 2 2 2 3 3 3 3 3 3 4
2 2 2 3 3 2 2 2 3 2 2 2 2 1 1 2 2 1 1 1 2 2 1 1 2 2 1 1 1 1 1 1 1 1 2 2 2 2 2 3 3 3 3 3
2 1 1 1 1 1 1 2 2 1 2 2 1 1 2 2 2 2 1 1 2 2 1 0 1 1 1 1 1 1 1 1 2 2 2 2 2 2 2 2 3 3 3 3
3 2 2 3 2 2 2 2 2 1 1 2 1 1 2 2 2 2 2 2 1 1 0 0 0 0 0 1 1 1 1 1 1 2 2 2 2 2 2 3 2 2 2 3
Wind_Direction
198 208 154 186 276 219 145 167 164 187 181 209 197 171 160 156 156 144 153 162 167 168 165 165 162 161 161 160 157 157 154 155 164 165 156 138 135 132 126 124 124 121 106 93
1 11 42 15 333 92 132 139 139 143 188 225 184 136 146 158 161 156 157 159 165 164 163 170 173 171 165 162 162 156 155 163 163 152 141 138 144 135 121 112 102 95 98 97
286 324 46 334 273 151 117 127 146 171 204 159 131 153 174 172 164 160 159 160 162 165 174 181 181 172 167 166 156 150 151 150 154 151 148 155 152 128 135 144 130 118 111 102
127 56 193 242 269 121 107 66 92 133 150 153 163 176 177 168 156 150 153 152 161 165 177 185 174 162 156 151 149 152 155 156 154 151 155 155 146 147 155 156 152 143 129 127
117 151 261 296 322 101 113 53 24 117 129 141 134 79 34 144 143 153 161 163 161 164 168 163 158 157 148 147 150 151 167 173 172 164 157 149 151 160 166 147 140 145 145 143
119 138 210 251 292 192 97 35 322 112 125 135 111 119 240 214 155 145 137 139 140 142 132 136 150 146 145 152 158 169 175 173 169 165 160 158 163 168 171 160 151 144 141 143
140 167 247 266 296 41 105 221 266 108 128 139 154 190 197 160 147 141 146 143 133 126 129 143 144 138 147 156 175 180 169 163 165 167 164 162 158 167 157 152 135 143 147 143
133 153 246 304 15 117 193 209 175 130 145 147 145 132 120 121 132 128 139 130 130 129 126 129 138 138 151 173 178 161 157 163 170 171 172 162 157 163 155 150 148 161 152 142
165 200 243 318 112 156 137 152 224 158 170 155 141 141 140 138 136 147 141 137 137 133 130 137 145 151 158 175 159 152 158 168 172 166 169 160 162 166 160 156 164 175 168 178
79 288 313 2 31 40 40 347 284 199 172 154 147 154 154 155 161 166 150 149 140 132 139 161 163 158 165 162 151 158 168 177 173 163 161 158 162 169 171 176 182 185 182 189
58 279 4 4 7 31 24 21 22 21 133 158 149 158 165 164 170 171 162 163 159 157 170 180 179 175 177 160 150 166 177 180 175 170 165 162 156 174 192 204 197 190 194 191
221 227 185 268 305 7 24 355 339 350 10 154 156 160 162 167 169 165 173 166 163 170 184 186 179 179 184 174 166 167 175 181 180 176 173 166 159 110 13 239 212 199 194 189
209 223 211 263 301 305 275 284 313 326 164 163 175 164 156 158 161 161 169 168 176 184 188 177 167 174 184 178 170 172 182 187 184 181 179 180 181 178 184 345 31 133 206 198
181 108 12 324 301 325 325 316 353 330 136 134 147 146 149 151 154 166 186 187 177 171 168 164 169 198 198 175 163 167 179 187 184 185 186 187 191 191 186 186 201 238 241 205
335 137 220 246 252 324 359 32 30 21 113 103 125 133 141 145 153 174 171 150 144 147 158 163 176 220 206 171 166 175 180 183 185 186 192 197 197 193 194 197 196 191 178 189
310 350 339 310 322 317 349 29 3 258 176 144 142 154 156 151 151 146 139 142 154 172 181 177 196 215 188 168 170 179 193 193 191 194 194 197 199 196 194 193 190 184 185 184
213 272 279 282 279 281 256 203 212 224 190 153 163 164 146 132 130 137 149 151 163 185 191 189 210 209 189 183 183 185 190 204 202 201 201 202 205 203 194 186 187 192 196 186
227 231 237 251 251 244 244 248 237 214 191 177 164 158 158 163 170 168 158 135 128 155 216 211 203 192 196 201 194 182 180 199 203 208 210 207 205 195 183 181 183 184 182 175
241 241 257 256 246 219 205 205 232 213 191 171 164 170 171 177 173 163 154 148 163 199 234 224 196 193 213 221 195 182 187 200 206 207 201 203 200 192 180 178 178 178 172 168
253 250 256 253 237 192 161 189 211 195 183 165 155 151 155 171 171 167 161 184 213 220 220 202 190 205 220 216 191 191 203 203 201 200 191 190 188 187 183 182 179 173 171 175
288 256 231 233 245 290 150 163 160 165 167 151 152 165 173 183 181 170 166 202 247 224 199 190 190 204 219 218 202 203 204 202 197 203 199 190 186 184 179 180 179 175 178 183
327 221 207 85 93 44 89 125 131 138 135 140 146 159 159 167 178 184 198 207 213 198 191 200 200 207 214 205 197 198 199 203 201 200 195 188 184 181 179 183 185 185 184 184
24 98 94 96 126 129 95 92 111 123 131 150 161 162 167 177 176 168 199 228 196 187 188 205 212 205 204 197 196 196 194 192 193 191 191 188 181 175 177 184 188 188 187 187
62 64 77 100 100 90 77 56 75 92 114 132 155 155 141 131 118 181 177 176 169 167 188 213 201 192 187 186 177 184 197 200 196 195 194 190 183 179 179 184 190 191 190 189
73 76 74 77 76 78 88 84 79 69 64 59 67 93 119 129 141 153 125 134 150 133 106 165 169 166 154 142 151 167 193 202 194 183 180 179 182 179 181 188 194 196 195 191
42 52 72 88 102 96 87 91 90 76 78 74 52 50 67 78 94 100 104 115 123 124 118 164 144 112 117 154 170 180 181 186 176 177 188 184 180 179 183 190 192 194 195 188
28 28 41 42 29 43 60 72 78 66 78 97 75 44 54 61 70 82 91 95 101 111 121 105 118 134 169 194 196 202 192 175 168 178 185 185 179 183 190 194 199 195 188 180